EW3867 Weather Reports


Display with metric or nautical units.
time (UTC)temp
F
wind
direction
speed
MPH
gust
MPH
rain 1hr
in
rain 24hr
in
rain mn
in
humidity
%
barometer
mb
20260903074422 56 9 0.0 0.0 0.00 0.00 0.00 74 1008.7
20260903072244 57 9 0.0 0.0 0.00 0.00 0.00 72 1008.8
20260903070153 57 9 0.0 0.0 0.00 0.00 0.00 71 1008.6
20260903065145 57 9 0.0 0.0 0.00 0.00 0.00 71 1008.6
20260903063054 58 9 0.0 0.0 0.00 0.00 0.00 70 1008.5
20260903062112 58 9 0.0 2.0 0.00 0.00 0.00 69 1008.4
20260903061100 59 9 0.0 1.0 0.00 0.00 0.00 68 1008.4
20260903060057 59 9 0.0 0.0 0.00 0.00 0.00 69 1008.4
20260903053908 59 9 0.0 0.0 0.00 0.00 0.00 69 1008.3
20260903052849 60 9 0.0 0.0 0.00 0.00 0.00 68 1008.3
20260903051905 60 9 0.0 0.0 0.00 0.00 0.00 67 1008.3
20260903050850 61 9 0.0 0.0 0.00 0.00 0.00 67 1008.3
20260903045911 61 9 0.0 0.0 0.00 0.00 0.00 67 1008.3
20260903044844 61 9 0.0 0.0 0.00 0.00 0.00 68 1008.4
20260903042735 60 9 0.0 0.0 0.00 0.00 0.00 69 1008.3
20260903041742 60 9 0.0 1.0 0.00 0.00 0.00 69 1008.4
20260903040723 60 9 0.0 0.0 0.00 0.00 0.00 69 1008.2
20260903035659 60 9 4.0 8.0 0.00 0.00 0.00 69 1008.1
20260903034628 61 9 0.0 0.0 0.00 0.00 0.00 69 1008.1
20260903030149 62 5 0.0 0.0 0.00 0.00 0.00 64 1007.6
20260903024037 63 5 0.0 0.0 0.00 0.00 0.00 62 1007.4
20260903020728 67 5 0.0 0.0 0.00 0.00 0.00 53 1007.2
20260903015712 67 5 0.0 0.0 0.00 0.00 0.00 51 1006.9
20260903013540 69 5 0.0 0.0 0.00 0.00 0.00 48 1007.1
20260903012543 70 5 0.0 0.0 0.00 0.00 0.00 47 1007.2
20260903011530 70 5 1.0 4.0 0.00 0.00 0.00 48 1007.4
20260903010512 70 0 7.0 11.0 0.00 0.00 0.00 50 1007.4
20260903005444 70 350 1.0 9.0 0.00 0.00 0.00 50 1007.3
20260903003328 70 355 7.0 13.0 0.00 0.00 0.00 47 1007.3
20260903001143 71 5 13.0 16.0 0.00 0.00 0.00 49 1007.5
20260903000143 71 15 11.0 16.0 0.00 0.00 0.00 50 1007.5
20260902235207 72 355 6.0 13.0 0.00 0.00 0.00 47 1007.7
20260902234150 70 0 7.0 13.0 0.00 0.00 0.00 48 1007.9
20260902232018 69 0 13.0 24.0 0.00 0.00 0.00 55 1007.9
20260902225855 70 0 16.0 27.0 0.00 0.00 0.00 50 1008.0
20260902223731 76 198 1.0 9.0 0.00 0.00 0.00 35 1006.9
20260902222712 77 252 0.0 1.0 0.00 0.00 0.00 36 1006.8
20260902220627 79 265 0.0 0.0 0.00 0.00 0.00 35 1007.2
20260902215646 77 0 0.0 0.0 0.00 0.00 0.00 38 1007.3
20260902214659 76 247 0.0 6.0 0.00 0.00 0.00 38 1007.6
20260902213708 77 0 4.0 0.0 0.00 0.00 0.00 36 1007.7
20260902211636 76 0 11.0 24.0 0.00 0.00 0.00 39 1008.1
20260902210648 77 0 15.0 24.0 0.00 0.00 0.00 37 1008.1
20260902205648 79 255 14.0 22.0 0.00 0.00 0.00 35 1008.1
20260902204702 79 195 9.0 21.0 0.00 0.00 0.00 32 1008.2
20260902203725 78 161 9.0 18.0 0.00 0.00 0.00 36 1008.3
20260902202717 78 215 4.0 15.0 0.00 0.00 0.00 32 1008.3
20260902201720 79 222 4.0 14.0 0.00 0.00 0.00 33 1008.2
20260902200649 79 196 4.0 13.0 0.00 0.00 0.00 31 1008.3
20260902195637 79 173 4.0 14.0 0.00 0.00 0.00 32 1008.5
20260902194636 79 236 8.0 16.0 0.00 0.00 0.00 33 1008.8
20260902193619 78 232 7.0 19.0 0.00 0.00 0.00 34 1008.9
20260902192610 78 207 4.0 19.0 0.00 0.00 0.00 34 1009.0
20260902191600 78 246 8.0 18.0 0.00 0.00 0.00 33 1009.4
20260902190609 78 224 4.0 18.0 0.00 0.00 0.00 33 1009.4
20260902181101 76 200 4.0 17.0 0.00 0.00 0.00 37 1010.6
20260902180122 76 210 1.0 10.0 0.00 0.00 0.00 36 1010.8
20260902175122 74 235 0.0 0.0 0.00 0.00 0.00 37 1010.9
20260902174138 76 260 1.0 14.0 0.00 0.00 0.00 36 1011.0
20260902173130 75 239 0.0 0.0 0.00 0.00 0.00 37 1010.9
20260902172122 75 183 0.0 0.0 0.00 0.00 0.00 36 1011.0
20260902171125 75 160 4.0 12.0 0.00 0.00 0.00 40 1010.9
20260902170135 73 191 1.0 10.0 0.00 0.00 0.00 41 1010.9
20260902163955 74 180 0.0 0.0 0.00 0.00 0.00 41 1011.1
20260902163016 73 180 0.0 0.0 0.00 0.00 0.00 42 1011.0
20260902162022 72 180 0.0 8.0 0.00 0.00 0.00 42 1011.1
20260902161032 72 200 0.0 0.0 0.00 0.00 0.00 42 1011.2
20260902153738 70 240 1.0 9.0 0.00 0.00 0.00 43 1011.3
20260902152743 69 254 0.0 8.0 0.00 0.00 0.00 45 1011.3
20260902151719 70 5 0.0 7.0 0.00 0.00 0.00 47 1011.3
20260902150706 70 5 0.0 3.0 0.00 0.00 0.00 46 1011.4
20260902145634 69 5 0.0 0.0 0.00 0.00 0.00 45 1011.4
20260902144627 67 5 0.0 0.0 0.00 0.00 0.00 48 1011.5
20260902143646 65 5 0.0 0.0 0.00 0.00 0.00 48 1011.5
20260902142704 64 5 0.0 0.0 0.00 0.00 0.00 54 1011.6
20260902141704 62 5 0.0 0.0 0.00 0.00 0.00 57 1011.5
20260902140720 61 5 0.0 0.0 0.00 0.00 0.00 58 1011.4
20260902135739 59 5 0.0 0.0 0.00 0.00 0.00 63 1011.3
20260902133610 56 5 0.0 0.0 0.00 0.00 0.00 68 1011.3
20260902132550 55 5 0.0 0.0 0.00 0.00 0.00 72 1011.1
20260902131557 54 5 0.0 0.0 0.00 0.00 0.00 71 1011.1
20260902130539 53 5 0.0 2.0 0.00 0.00 0.00 73 1011.1
20260902125546 52 5 0.0 0.0 0.00 0.00 0.00 74 1011.0
20260902124557 53 5 0.0 0.0 0.00 0.00 0.00 73 1010.9
20260902123530 53 5 0.0 0.0 0.00 0.00 0.00 73 1010.8
20260902122538 53 5 1.0 7.0 0.00 0.00 0.00 73 1010.6
20260902120336 54 5 0.0 0.0 0.00 0.00 0.00 72 1010.6
20260902114232 54 5 0.0 0.0 0.00 0.00 0.00 70 1010.4
20260902113227 55 5 0.0 0.0 0.00 0.00 0.00 70 1010.5
20260902112202 55 5 0.0 0.0 0.00 0.00 0.00 69 1010.3
20260902111202 55 5 0.0 0.0 0.00 0.00 0.00 70 1010.4
20260902110217 55 5 0.0 0.0 0.00 0.00 0.00 68 1010.4
20260902105225 56 5 0.0 0.0 0.00 0.00 0.00 66 1010.5
20260902104234 58 5 0.0 0.0 0.00 0.00 0.00 64 1010.5
20260902103241 58 5 0.0 0.0 0.00 0.00 0.00 64 1010.5
20260902102307 58 5 0.0 0.0 0.00 0.00 0.00 62 1010.5
20260902101252 57 5 4.0 9.0 0.00 0.00 0.00 64 1010.4
20260902095140 56 340 0.0 0.0 0.00 0.00 0.00 67 1010.4
20260902094122 56 340 0.0 0.0 0.00 0.00 0.00 67 1010.4
20260902093110 56 340 0.0 0.0 0.00 0.00 0.00 68 1010.5
20260902092103 56 340 0.0 0.0 0.00 0.00 0.00 68 1010.5
20260902091052 56 340 0.0 0.0 0.00 0.00 0.00 68 1010.6
20260902090018 57 339 0.0 0.0 0.00 0.00 0.00 65 1010.8
20260902083822 58 340 0.0 0.0 0.00 0.00 0.00 68 1010.8
20260902082816 58 340 0.0 0.0 0.00 0.00 0.00 68 1010.7
20260902081831 58 340 0.0 0.0 0.00 0.00 0.00 64 1011.0
20260902080856 58 355 0.0 0.0 0.00 0.00 0.00 60 1010.8
20260902075836 59 355 0.0 0.0 0.00 0.00 0.00 59 1010.7
20260902074853 59 355 0.0 0.0 0.00 0.00 0.00 59 1010.8